{"data":{"norad_id":66127,"epoch":"2026-05-25T00:34:05.507904Z","epoch_age_seconds":73763,"freshness":"FRESH","line1":"1 66127U 25237P   26145.02367486  .00010572  00000+0  36861-3 0  9996","line2":"2 66127  53.1586  45.3361 0000974  84.0414 276.0697 15.30195465 34299","mean_motion":15.30195465,"eccentricity":9.74e-5,"inclination_deg":53.1586,"raan_deg":45.3361,"arg_perigee_deg":84.0414,"mean_anomaly_deg":276.0697,"bstar":0.00036861,"rev_number":3429,"period_min":94.105624603978,"perigee_km":474.5610923349,"apogee_km":475.89612795575,"semimajor_km":6853.3656101453,"source":"CELESTRAK","updated_at":"2026-05-25T13:38:21.064595Z"}}